User: anonymous   Login
Location: NJAA Observatory
(40.6819°N, 74.8979°W)
Time: 00:20:34
(UTC-05:00)
Language:

ALOS - Orbit

View from above orbital plane
View from above orbital plane
View from above satellite
View from above satellite

Ground track
Ground track

The orbit data is extracted from the following two-line orbital elements,

1 28931U 06002A   15058.21176352  .00000895  00000-0  18867-3 0  9992
2 28931 097.9487 111.9424 0002349 093.1656 266.9814 14.61695600484571
Epoch (UTC): 27 February 2015 05:04:56
Eccentricity: 0.0002349
inclination: 97.9487°
perigee height: 686 km
apogee height: 689 km
right ascension of ascending node: 111.9424°
argument of perigee: 93.1656°
revolutions per day: 14.61695600
mean anomaly at epoch: 266.9814°
orbit number at epoch: 48457

The dashed part of the orbit path shows where the satellite is in the earth's shadow,  

DLR